Greer, SC

5:57 AM EDT on September 27, 2016 (GMT -0400)
Greenville-Spartanburg International

Weather History for KGSP - April, 2012

Change the Weather History Date:

Wednesday, April 11, 2012

  Actual Average Record
Temperature  
Mean Temperature 55 °F 59 °F  
Max Temperature 65 °F 72 °F 88 °F (1999)
Min Temperature 44 °F 47 °F 25 °F (1973)
Degree Days  
Heating Degree Days 10 7  
Month to date heating degree days 34 84  
Since 1 July heating degree days 2294 2917  
Cooling Degree Days 0 1  
Month to date cooling degree days 19 11  
Year to date cooling degree days 85 19  
Growing Degree Days 4 (Base 50)    
Moisture  
Dew Point 23 °F    
Average Humidity 31    
Maximum Humidity 42    
Minimum Humidity 20    
Precipitation  
Precipitation 0.00 in 0.11 in 2.48 in (1962)
Month to date precipitation 0.98 1.27  
Year to date precipitation 9.59 13.58  
Snow  
Snow 0.00 in 0.00 in T in (1918)
Month to date snowfall 0.0 0.0  
Since 1 July snowfall T 4.7  
Snow Depth 0.00 in    
Sea Level Pressure  
Sea Level Pressure 29.99 in    
Wind  
Wind Speed 8 mph (North)    
Max Wind Speed 16 mph    
Max Gust Speed 23 mph    
Visibility 10 miles    
Events      
T = Trace of Precipitation, MM = Missing Value Source: NWS Daily Summary

Daily Weather History Graph

Daily Weather History Graph

Search for Another Location

Airport or City:

Trip Planner

Search our weather history database for the weather conditions in past years. The results will help you decide how hot, cold, wet, or windy it might be!

Date:

Astronomy

Apr. 11, 2012 Rise Set
Actual Time 7:01 AM EDT 7:58 PM EDT
Civil Twilight 6:35 AM EDT 8:24 PM EDT
Nautical Twilight 6:05 AM EDT 8:55 PM EDT
Astronomical Twilight 5:33 AM EDT 9:26 PM EDT
Moon 12:43 AM EDT (4/11) 10:57 AM EDT (4/11)
Length of Visible Light 13h 48m
Length of Day
12h 56m
Waning Gibbous, 69% of the Moon is Illuminated
Apr 11
Waning Gibbous
Apr 13
Last Quarter
Apr 21
New
Apr 29
First Quarter
May 5
Full

Hourly Weather History & Observations

Time (EDT) Temp. Windchill Dew Point Humidity Pressure Visibility Wind Dir Wind Speed Gust Speed Precip Events Conditions
12:53 AM 59.0 °F - 24.8 °F 27% 29.91 in 10.0 mi Variable 6.9 mph - N/A   Clear
1:53 AM 54.0 °F - 26.1 °F 34% 29.89 in 10.0 mi West 8.1 mph - N/A   Clear
2:53 AM 53.1 °F - 25.0 °F 34% 29.91 in 10.0 mi North 4.6 mph - N/A   Clear
3:53 AM 50.0 °F - 23.0 °F 35% 29.91 in 10.0 mi North 9.2 mph - N/A   Clear
4:53 AM 48.0 °F - 23.0 °F 37% 29.93 in 10.0 mi North 6.9 mph 16.1 mph N/A   Clear
5:53 AM 46.9 °F - 21.0 °F 36% 29.95 in 10.0 mi North 11.5 mph - N/A   Clear
6:53 AM 46.9 °F - 18.0 °F 32% 29.99 in 10.0 mi North 8.1 mph - N/A   Clear
7:53 AM 46.0 °F 42.5 °F 19.9 °F 35% 30.01 in 10.0 mi North 6.9 mph - N/A   Clear
8:53 AM 51.1 °F - 21.0 °F 31% 30.03 in 10.0 mi North 6.9 mph - N/A   Clear
9:53 AM 53.1 °F - 21.0 °F 29% 30.03 in 10.0 mi NW 4.6 mph - N/A   Clear
10:53 AM 55.9 °F - 23.0 °F 28% 30.03 in 10.0 mi NW 8.1 mph - N/A   Clear
11:53 AM 57.0 °F - 23.0 °F 27% 30.01 in 10.0 mi WSW 5.8 mph - N/A   Clear
12:53 PM 57.9 °F - 21.9 °F 25% 29.99 in 10.0 mi Variable 4.6 mph - N/A   Clear
1:53 PM 60.1 °F - 21.0 °F 22% 29.98 in 10.0 mi Variable 3.5 mph - N/A   Clear
2:53 PM 62.1 °F - 21.9 °F 21% 29.96 in 10.0 mi NNE 3.5 mph - N/A   Clear
3:53 PM 64.0 °F - 24.1 °F 22% 29.95 in 10.0 mi SE 4.6 mph - N/A   Clear
4:53 PM 64.9 °F - 23.0 °F 20% 29.95 in 10.0 mi North 8.1 mph - N/A   Clear
5:53 PM 63.0 °F - 26.1 °F 25% 29.96 in 10.0 mi NNE 13.8 mph - N/A   Clear
6:53 PM 60.1 °F - 24.1 °F 25% 29.98 in 10.0 mi North 11.5 mph 23.0 mph N/A   Clear
7:53 PM 55.9 °F - 24.1 °F 29% 30.01 in 10.0 mi North 9.2 mph 18.4 mph N/A   Clear
8:53 PM 53.1 °F - 23.0 °F 31% 30.05 in 10.0 mi NNE 11.5 mph 21.9 mph N/A   Clear
9:53 PM 50.0 °F - 23.0 °F 35% 30.09 in 10.0 mi NNE 6.9 mph - N/A   Clear
10:53 PM 48.0 °F - 25.0 °F 41% 30.11 in 10.0 mi NE 8.1 mph - N/A   Clear
11:53 PM 46.0 °F 41.4 °F 24.1 °F 42% 30.13 in 10.0 mi NE 9.2 mph - N/A   Clear